Point Hope, AK

5:57 PM AKDT on June 28, 2017 (GMT -0800)
Point Hope

Weather History for PAPO - May, 2013

Change the Weather History Date:

Thursday, May 30, 2013

  Actual Average Record
Temperature  
Mean Temperature 30 °F -  
Max Temperature 33 °F 34 °F 46 °F (2015)
Min Temperature 28 °F 27 °F 24 °F (2006)
Degree Days  
Heating Degree Days 34    
Moisture  
Dew Point 29 °F    
Average Humidity 89    
Maximum Humidity 93    
Minimum Humidity 81    
Precipitation  
Precipitation 0.00 in - - ()
Sea Level Pressure  
Sea Level Pressure 30.11 in    
Wind  
Wind Speed 17 mph (North)    
Max Wind Speed 24 mph    
Max Gust Speed 30 mph    
Visibility 8 miles    
Events      
Averages and records for this station are not official NWS values.
T = Trace of Precipitation, MM = Missing Value Source: NWS Daily Summary

Daily Weather History Graph

Daily Weather History Graph

Search for Another Location

Airport or City:

Trip Planner

Search our weather history database for the weather conditions in past years. The results will help you decide how hot, cold, wet, or windy it might be!

Date:

Astronomy

May. 30, 2013 Rise Set
Actual Time 3:37 AM AKDT 2:32 AM AKDT
Civil Twilight Sun does not set Sun does not set
Nautical Twilight Sun does not set Sun does not set
Astronomical Twilight Sun does not set Sun does not set
Moon 3:43 AM AKDT (5/30) 1:10 PM AKDT (5/30)
Length of Visible Light 24h 00m
Length of Day
22h 55m
Waning Gibbous, 61% of the Moon is Illuminated
May 30
Waning Gibbous
May 31
Last Quarter
Jun 8
New
Jun 16
First Quarter
Jun 23
Full

Hourly Weather History & Observations

Time (AKDT) Temp. Windchill Dew Point Humidity Pressure Visibility Wind Dir Wind Speed Gust Speed Precip Events Conditions
12:16 AM 30.2 °F 18.9 °F 28.4 °F 93% 30.05 in 10.0 mi North 16.1 mph - N/A   Clear
12:36 AM 30.2 °F 18.5 °F 28.4 °F 93% 30.05 in 10.0 mi North 17.3 mph - N/A   Clear
12:56 AM 30.2 °F 18.5 °F 28.4 °F 93% 30.05 in 10.0 mi North 17.3 mph - N/A   Clear
1:16 AM 30.2 °F 18.5 °F 28.4 °F 93% 30.05 in 10.0 mi North 17.3 mph - N/A   Clear
1:36 AM 28.4 °F 15.8 °F 26.6 °F 93% 30.05 in 10.0 mi North 18.4 mph - N/A   Clear
1:56 AM 28.4 °F 17.0 °F 26.6 °F 93% 30.06 in 10.0 mi North 15.0 mph - N/A   Clear
2:16 AM 30.2 °F 18.9 °F 28.4 °F 93% 30.06 in 10.0 mi North 16.1 mph - N/A   Clear
2:36 AM 30.2 °F 19.3 °F 28.4 °F 93% 30.06 in 10.0 mi North 15.0 mph - N/A   Clear
2:56 AM 30.2 °F 19.8 °F 28.4 °F 93% 30.06 in 10.0 mi North 13.8 mph - N/A   Clear
3:16 AM 28.4 °F 17.0 °F 26.6 °F 93% 30.06 in 10.0 mi North 15.0 mph - N/A   Clear
3:36 AM 30.2 °F 18.9 °F 28.4 °F 93% 30.06 in 10.0 mi North 16.1 mph - N/A   Clear
3:56 AM 30.2 °F 19.3 °F 28.4 °F 93% 30.06 in 10.0 mi North 15.0 mph - N/A   Clear
4:16 AM 30.2 °F 20.8 °F 28.4 °F 93% 30.06 in 10.0 mi North 11.5 mph - N/A   Clear
4:36 AM 30.2 °F 19.3 °F 28.4 °F 93% 30.05 in 10.0 mi North 15.0 mph - N/A   Clear
4:56 AM 30.2 °F 18.9 °F 28.4 °F 93% 30.05 in 10.0 mi North 16.1 mph - N/A   Clear
5:16 AM 30.2 °F 19.3 °F 28.4 °F 93% 30.05 in 10.0 mi North 15.0 mph - N/A   Clear
5:36 AM 30.2 °F 20.2 °F 28.4 °F 93% 30.06 in 10.0 mi North 12.7 mph - N/A   Clear
5:56 AM 30.2 °F 20.2 °F 28.4 °F 93% 30.06 in 10.0 mi North 12.7 mph - N/A   Clear
6:16 AM 30.2 °F 20.2 °F 28.4 °F 93% 30.06 in 10.0 mi North 12.7 mph - N/A   Clear
6:36 AM 30.2 °F 19.3 °F 28.4 °F 93% 30.07 in 10.0 mi North 15.0 mph - N/A   Clear
6:56 AM 30.2 °F 20.2 °F 28.4 °F 93% 30.07 in 10.0 mi North 12.7 mph - N/A   Clear
7:16 AM 30.2 °F 18.9 °F 28.4 °F 93% 30.07 in 10.0 mi North 16.1 mph - N/A   Clear
7:36 AM 30.2 °F 18.9 °F 28.4 °F 93% 30.07 in 10.0 mi North 16.1 mph - N/A   Clear
7:56 AM 32.0 °F 22.1 °F 28.4 °F 87% 30.08 in 10.0 mi North 13.8 mph - N/A   Clear
8:16 AM 32.0 °F 23.0 °F 30.2 °F 93% 30.08 in 10.0 mi NNE 11.5 mph - N/A   Clear
8:36 AM 32.0 °F 21.6 °F 28.4 °F 87% 30.08 in 10.0 mi North 15.0 mph - N/A   Clear
8:56 AM 32.0 °F 21.6 °F 30.2 °F 93% 30.09 in 10.0 mi North 15.0 mph - N/A   Clear
9:16 AM 32.0 °F 20.5 °F 30.2 °F 93% 30.08 in 10.0 mi North 18.4 mph - N/A   Clear
9:36 AM 33.8 °F 22.5 °F 30.2 °F 87% 30.09 in 10.0 mi North 19.6 mph 25.3 mph N/A   Clear
9:56 AM 33.8 °F 22.5 °F 30.2 °F 87% 30.09 in 10.0 mi North 19.6 mph - N/A   Clear
10:16 AM 33.8 °F 23.2 °F 30.2 °F 87% 30.10 in 10.0 mi North 17.3 mph - N/A   Clear
10:36 AM 33.8 °F 22.5 °F 28.4 °F 81% 30.10 in 10.0 mi North 19.6 mph - N/A   Clear
10:56 AM 33.8 °F 23.2 °F 30.2 °F 87% 30.10 in 10.0 mi North 17.3 mph - N/A   Clear
11:16 AM 33.8 °F 23.2 °F 28.4 °F 81% 30.11 in 10.0 mi North 17.3 mph - N/A   Clear
11:36 AM 32.0 °F 20.5 °F 28.4 °F 87% 30.11 in 10.0 mi North 18.4 mph - N/A   Clear
11:56 AM 32.0 °F 19.8 °F 28.4 °F 87% 30.11 in 10.0 mi North 20.7 mph - N/A   Clear
12:16 PM 32.0 °F 19.8 °F 28.4 °F 87% 30.11 in 10.0 mi North 20.7 mph - N/A   Partly Cloudy
12:36 PM 32.0 °F 19.5 °F 28.4 °F 87% 30.12 in 10.0 mi North 21.9 mph - N/A   Partly Cloudy
12:56 PM 32.0 °F 20.1 °F 28.4 °F 87% 30.12 in 10.0 mi North 19.6 mph - N/A   Mostly Cloudy
1:16 PM 32.0 °F 19.8 °F 28.4 °F 87% 30.13 in 10.0 mi North 20.7 mph - N/A   Overcast
1:36 PM 32.0 °F 19.8 °F 28.4 °F 87% 30.12 in 10.0 mi North 20.7 mph - N/A   Overcast
1:56 PM 32.0 °F 19.2 °F 28.4 °F 87% 30.13 in 10.0 mi North 23.0 mph - N/A   Mostly Cloudy
2:16 PM 33.8 °F 21.6 °F 28.4 °F 81% 30.13 in 10.0 mi North 23.0 mph - N/A   Partly Cloudy
2:36 PM 33.8 °F 22.8 °F 28.4 °F 81% 30.13 in 10.0 mi North 18.4 mph - N/A   Clear
2:56 PM 33.8 °F 22.2 °F 30.2 °F 87% 30.13 in 10.0 mi North 20.7 mph - N/A   Clear
3:36 PM 33.8 °F 22.5 °F 28.4 °F 81% 30.14 in 10.0 mi North 19.6 mph - N/A   Clear
3:56 PM 33.8 °F 22.8 °F 28.4 °F 81% 30.15 in 10.0 mi North 18.4 mph - N/A   Scattered Clouds
4:16 PM 33.8 °F 23.2 °F 28.4 °F 81% 30.15 in 10.0 mi North 17.3 mph - N/A   Overcast
4:36 PM 33.8 °F 22.2 °F 30.2 °F 87% 30.15 in 8.0 mi North 20.7 mph - N/A   Overcast
4:56 PM 32.0 °F 20.1 °F 28.4 °F 87% 30.15 in 5.0 mi North 19.6 mph 25.3 mph N/A   Overcast
5:16 PM 33.8 °F 22.2 °F 28.4 °F 81% 30.15 in 10.0 mi North 20.7 mph - N/A   Overcast
5:36 PM 33.8 °F 22.2 °F 28.4 °F 81% 30.15 in 10.0 mi North 20.7 mph - N/A   Overcast
5:56 PM 33.8 °F 21.9 °F 30.2 °F 87% 30.15 in 8.0 mi North 21.9 mph 25.3 mph N/A   Overcast
6:16 PM 33.8 °F 21.9 °F 28.4 °F 81% 30.15 in 10.0 mi North 21.9 mph - N/A   Overcast
6:36 PM 33.8 °F 21.9 °F 28.4 °F 81% 30.16 in 6.0 mi North 21.9 mph - N/A   Overcast
6:56 PM 32.0 °F 19.5 °F 28.4 °F 87% 30.16 in 7.0 mi North 21.9 mph - N/A   Overcast
7:16 PM 32.0 °F 19.8 °F 28.4 °F 87% 30.16 in 5.0 mi North 20.7 mph - N/A   Overcast
7:36 PM 32.0 °F 19.5 °F 28.4 °F 87% 30.16 in 1.2 mi North 21.9 mph - N/A   Overcast
7:56 PM 32.0 °F 19.5 °F 28.4 °F 87% 30.17 in 1.0 mi North 21.9 mph - N/A   Overcast
8:16 PM 32.0 °F 18.9 °F 28.4 °F 87% 30.17 in 0.8 mi North 24.2 mph - N/A   Overcast
8:36 PM 30.2 °F 16.5 °F 28.4 °F 93% 30.17 in 1.2 mi North 24.2 mph 28.8 mph N/A   Overcast
8:56 PM 30.2 °F 17.1 °F 28.4 °F 93% 30.18 in 0.8 mi North 21.9 mph - N/A   Overcast
9:16 PM 30.2 °F 16.8 °F 28.4 °F 93% 30.18 in 0.8 mi North 23.0 mph 29.9 mph N/A   Overcast
9:36 PM 30.2 °F 17.1 °F 28.4 °F 93% 30.18 in 0.8 mi North 21.9 mph - N/A   Overcast
9:56 PM 30.2 °F 16.8 °F 28.4 °F 93% 30.19 in 1.0 mi North 23.0 mph - N/A   Overcast
10:16 PM 30.2 °F 16.8 °F 28.4 °F 93% 30.19 in 0.8 mi North 23.0 mph - N/A   Overcast
10:36 PM 30.2 °F 16.8 °F 28.4 °F 93% 30.19 in 0.5 mi North 23.0 mph - N/A   Overcast
10:56 PM 30.2 °F 17.1 °F 28.4 °F 93% 30.20 in 0.5 mi North 21.9 mph - N/A   Overcast
11:16 PM 30.2 °F 17.8 °F 28.4 °F 93% 30.21 in 1.0 mi North 19.6 mph - N/A   Overcast
11:36 PM 30.2 °F 17.1 °F 28.4 °F 93% 30.21 in 0.8 mi North 21.9 mph 27.6 mph N/A   Overcast
11:56 PM 30.2 °F 17.1 °F 28.4 °F 93% 30.21 in 0.8 mi North 21.9 mph 25.3 mph N/A   Overcast